GW4208 Weather Reports


time (UTC)temp
C
wind
direction
speed
KPH
gust
KPH
rain 1hr
cm
rain 24hr
cm
rain mn
cm
humidity
%
barometer
mb
20260504201752 22 238 6.4 6.4 0.00 0.00 0.00 37 1004.7
20260504201249 23 251 9.7 17.7 0.00 0.00 0.00 36 1004.9
20260504200748 22 190 1.6 1.6 0.00 0.00 0.00 37 1004.7
20260504200243 21 245 3.2 4.8 0.00 0.00 0.00 42 1005.0
20260504195740 21 249 9.7 11.3 0.00 0.00 0.00 39 1004.8
20260504195236 23 183 3.2 4.8 0.00 0.00 0.00 37 1004.9
20260504194733 22 161 3.2 3.2 0.00 0.00 0.00 45 1005.0
20260504194229 22 200 3.2 3.2 0.00 0.00 0.00 40 1004.9
20260504193725 22 244 3.2 6.4 0.00 0.00 0.00 41 1005.0
20260504193223 21 238 4.8 4.8 0.00 0.00 0.00 42 1005.2
20260504192721 21 194 4.8 6.4 0.00 0.00 0.00 38 1005.1
20260504192219 22 222 4.8 4.8 0.00 0.00 0.00 40 1005.2
20260504191717 21 262 11.3 16.1 0.00 0.00 0.00 40 1005.3
20260504191214 21 144 3.2 4.8 0.00 0.00 0.00 45 1005.4
20260504190709 21 358 1.6 1.6 0.00 0.00 0.00 45 1005.4
20260504190206 21 208 4.8 6.4 0.00 0.00 0.00 42 1005.6
20260504185702 20 195 6.4 9.7 0.00 0.00 0.00 43 1005.6
20260504185159 21 177 3.2 3.2 0.00 0.00 0.00 43 1005.6
20260504184655 21 211 6.4 6.4 0.00 0.00 0.00 43 1005.6
20260504184150 21 172 3.2 3.2 0.00 0.00 0.00 41 1005.5
20260504183647 21 230 9.7 11.3 0.00 0.00 0.00 41 1005.6
20260504183144 21 231 3.2 3.2 0.00 0.00 0.00 41 1005.7
20260504182642 21 245 6.4 11.3 0.00 0.00 0.00 42 1005.7
20260504182139 21 244 4.8 4.8 0.00 0.00 0.00 43 1005.6
20260504181637 21 314 6.4 6.4 0.00 0.00 0.00 45 1005.8
20260504181134 20 224 3.2 3.2 0.00 0.00 0.00 44 1005.6
20260504180634 20 319 4.8 6.4 0.00 0.00 0.00 42 1005.7
20260504180132 20 221 4.8 9.7 0.00 0.00 0.00 45 1005.7
20260504175629 19 161 0.0 0.0 0.00 0.00 0.00 46 1005.7
20260504175125 19 237 6.4 9.7 0.00 0.00 0.00 44 1005.9
20260504174624 19 193 3.2 3.2 0.00 0.00 0.00 43 1006.0
20260504174119 19 229 3.2 4.8 0.00 0.00 0.00 44 1006.1
20260504173617 20 256 8.0 11.3 0.00 0.00 0.00 42 1006.0
20260504173115 20 286 3.2 3.2 0.00 0.00 0.00 43 1005.9
20260504172611 19 206 6.4 6.4 0.00 0.00 0.00 44 1006.1
20260504172107 19 178 3.2 3.2 0.00 0.00 0.00 44 1005.9
20260504171603 19 235 3.2 4.8 0.00 0.00 0.00 45 1006.1
20260504171101 20 262 4.8 9.7 0.00 0.00 0.00 43 1006.0
20260504170556 18 284 4.8 6.4 0.00 0.00 0.00 44 1006.0
20260504150940 17 245 6.4 9.7 0.00 0.00 0.00 47 1007.2
20260504150437 17 121 1.6 1.6 0.00 0.00 0.00 52 1007.1
20260504140903 13 161 0.0 1.6 0.00 0.00 0.00 54 1007.6
20260504140359 12 161 0.0 0.0 0.00 0.00 0.00 59 1007.5
20260504130325 11 210 1.6 3.2 0.00 0.00 0.00 59 1007.7
20260504120248 10 173 1.6 1.6 0.00 0.00 0.00 60 1007.8
20260504110715 8 160 1.6 1.6 0.00 0.00 0.00 65 1007.9
20260504110212 8 161 1.6 3.2 0.00 0.00 0.00 65 1007.9
20260504100131 6 157 0.0 0.0 0.00 0.00 0.00 82 1007.8
20260504081524 6 151 0.0 0.0 0.00 0.00 0.00 97 1008.3
20260504081019 6 151 0.0 0.0 0.00 0.00 0.00 97 1008.2
20260504080516 6 151 0.0 1.6 0.00 0.00 0.00 97 1008.3
20260504050328 7 137 0.0 0.0 0.00 0.00 0.00 96 1009.3
20260504045825 7 111 1.6 1.6 0.00 0.00 0.00 96 1009.4
20260504045320 7 153 0.0 1.6 0.00 0.00 0.00 96 1009.2
20260504044818 7 153 0.0 0.0 0.00 0.00 0.00 96 1009.3
20260504044315 7 153 0.0 0.0 0.00 0.00 0.00 96 1009.3
20260504043812 7 152 0.0 0.0 0.00 0.00 0.00 96 1009.2
20260504043309 7 152 0.0 0.0 0.00 0.00 0.00 96 1009.3
20260504042807 7 152 0.0 0.0 0.00 0.00 0.00 95 1009.3
20260504042304 7 147 1.6 1.6 0.00 0.00 0.00 95 1009.3
20260504041759 7 149 0.0 0.0 0.00 0.00 0.00 95 1009.4
20260504041255 7 163 0.0 0.0 0.00 0.00 0.00 95 1009.7
20260504040752 7 155 1.6 1.6 0.00 0.00 0.00 95 1009.4
20260504040249 7 143 0.0 0.0 0.00 0.00 0.00 95 1009.7
20260504035745 7 137 0.0 0.0 0.00 0.08 0.08 94 1009.7
20260504035242 7 137 0.0 0.0 0.00 0.08 0.08 94 1009.6
20260504034740 7 137 0.0 0.0 0.00 0.08 0.08 94 1009.6
20260504034237 7 137 0.0 0.0 0.00 0.08 0.08 94 1009.7
20260504033734 7 136 0.0 1.6 0.00 0.08 0.08 93 1009.8
20260504033232 7 137 0.0 0.0 0.00 0.08 0.08 93 1009.6
20260504032728 7 151 0.0 1.6 0.00 0.08 0.08 93 1009.1
20260504032226 8 135 1.6 3.2 0.00 0.08 0.08 91 1009.4
20260504031722 8 154 0.0 0.0 0.00 0.08 0.08 90 1009.8
20260504031220 8 152 0.0 0.0 0.00 0.08 0.08 90 1010.1
20260504030715 8 171 0.0 1.6 0.00 0.08 0.08 89 1010.1
20260504030213 8 176 1.6 1.6 0.00 0.08 0.08 88 1010.3
20260504025709 8 164 0.0 0.0 0.13 0.08 0.08 87 1010.0
20260504025206 8 176 1.6 1.6 0.13 0.08 0.08 86 1009.9
20260504024703 8 171 0.0 0.0 0.00 0.05 0.05 84 1010.2
20260504024200 8 178 3.2 4.8 0.00 0.05 0.05 83 1010.2
20260504023656 8 201 1.6 1.6 0.18 0.05 0.05 82 1010.4
20260504023152 8 126 1.6 1.6 0.18 0.05 0.05 80 1010.5
20260504022649 8 184 0.0 1.6 0.00 0.03 0.03 81 1010.6
20260504022144 8 183 0.0 1.6 0.00 0.03 0.03 79 1010.4
20260504021643 8 166 0.0 0.0 0.18 0.03 0.03 77 1010.4
20260504021139 8 172 1.6 1.6 0.18 0.03 0.03 75 1010.4
20260504020636 8 147 0.0 0.0 0.00 0.00 0.00 74 1010.1
20260504020132 9 155 0.0 1.6 0.00 0.00 0.00 72 1010.0
20260504015629 9 69 6.4 11.3 0.00 0.00 0.00 69 1010.2
20260504015125 9 190 1.6 1.6 0.00 0.00 0.00 68 1010.1
20260504014621 9 8 8.0 16.1 0.00 0.00 0.00 71 1010.2
20260504014119 10 140 0.0 0.0 0.00 0.00 0.00 67 1010.1
20260504013616 10 251 0.0 1.6 0.00 0.00 0.00 64 1010.1
20260504013113 10 154 0.0 0.0 0.00 0.00 0.00 63 1009.9
20260504012610 10 167 0.0 0.0 0.00 0.00 0.00 61 1009.9
20260504012108 10 45 4.8 4.8 0.00 0.00 0.00 60 1009.8
20260504011605 10 124 1.6 1.6 0.00 0.00 0.00 61 1009.7
20260504011101 10 167 0.0 1.6 0.00 0.00 0.00 63 1009.8
20260504010556 10 134 1.6 1.6 0.00 0.00 0.00 62 1010.0
20260504010053 10 207 1.6 1.6 0.00 0.00 0.00 60 1010.1
20260504005549 10 164 0.0 0.0 0.00 0.00 0.00 59 1009.9
20260504005047 10 160 0.0 0.0 0.00 0.00 0.00 59 1009.8
20260504004545 10 166 0.0 1.6 0.00 0.00 0.00 60 1009.7
20260504004042 10 153 0.0 0.0 0.00 0.00 0.00 59 1009.8
20260504003537 10 179 1.6 3.2 0.00 0.00 0.00 59 1009.7
20260504003034 10 198 1.6 1.6 0.00 0.00 0.00 58 1009.7
20260504002531 10 228 1.6 1.6 0.00 0.00 0.00 57 1009.7
20260504002029 11 238 4.8 6.4 0.00 0.00 0.00 54 1009.8
20260504001527 11 269 1.6 1.6 0.00 0.00 0.00 52 1010.0
20260504001022 11 32 3.2 3.2 0.00 0.00 0.00 51 1009.9
20260504000520 11 208 1.6 1.6 0.00 0.00 0.00 51 1009.7
20260504000017 11 176 1.6 3.2 0.00 0.00 0.00 51 1009.5
20260503235515 11 167 0.0 1.6 0.00 0.00 0.00 52 1009.7
20260503235012 11 217 1.6 3.2 0.00 0.00 0.00 51 1009.4
20260503234509 11 152 0.0 1.6 0.00 0.00 0.00 50 1009.2
20260503234008 11 180 3.2 3.2 0.00 0.00 0.00 50 1009.3
20260503233504 11 130 1.6 1.6 0.00 0.00 0.00 48 1009.2
20260503233000 11 213 1.6 1.6 0.00 0.00 0.00 49 1009.3
20260503232457 11 127 3.2 3.2 0.00 0.00 0.00 48 1009.3
20260503231954 11 219 3.2 3.2 0.00 0.00 0.00 48 1009.3
20260503231452 11 40 3.2 3.2 0.00 0.00 0.00 48 1009.1
20260503230948 11 224 3.2 3.2 0.00 0.00 0.00 46 1009.2
20260503230445 11 147 1.6 1.6 0.00 0.00 0.00 46 1009.1
20260503225943 11 230 3.2 4.8 0.00 0.00 0.00 45 1009.5
20260503225439 11 200 1.6 1.6 0.00 0.00 0.00 45 1009.3
20260503224935 12 186 1.6 1.6 0.00 0.00 0.00 45 1009.3
20260503224432 11 121 1.6 3.2 0.00 0.00 0.00 44 1009.3
20260503223930 11 233 3.2 3.2 0.00 0.00 0.00 44 1009.3
20260503223428 11 192 3.2 3.2 0.00 0.00 0.00 44 1009.4
20260503222928 11 119 1.6 3.2 0.00 0.00 0.00 43 1009.4
20260503222427 11 186 3.2 4.8 0.00 0.00 0.00 42 1009.2
20260503221925 11 187 4.8 4.8 0.00 0.00 0.00 42 1009.1
20260503221423 12 247 1.6 3.2 0.00 0.00 0.00 42 1009.1
20260503220919 12 29 4.8 4.8 0.00 0.00 0.00 42 1009.1
20260503220415 12 221 3.2 3.2 0.00 0.00 0.00 40 1009.2
20260503215913 12 174 1.6 3.2 0.00 0.00 0.00 41 1009.2
20260503215409 12 136 0.0 1.6 0.00 0.00 0.00 39 1009.0
20260503214907 13 273 9.7 12.9 0.00 0.00 0.00 38 1009.1
20260503214404 13 63 6.4 9.7 0.00 0.00 0.00 37 1009.1
20260503213901 13 327 4.8 4.8 0.00 0.00 0.00 38 1008.8
20260503213359 12 10 6.4 6.4 0.00 0.00 0.00 38 1009.1
20260503212856 12 246 6.4 6.4 0.00 0.00 0.00 38 1009.1
20260503212354 12 237 4.8 4.8 0.00 0.00 0.00 39 1009.2
20260503211850 12 249 3.2 3.2 0.00 0.00 0.00 39 1009.1
20260503211347 12 241 6.4 11.3 0.00 0.00 0.00 39 1009.1
20260503210842 12 236 9.7 12.9 0.00 0.00 0.00 37 1009.0
20260503210340 12 314 8.0 12.9 0.00 0.00 0.00 37 1009.0
20260503205835 12 211 3.2 4.8 0.00 0.00 0.00 37 1009.1
20260503205332 12 251 9.7 12.9 0.00 0.00 0.00 36 1008.9
20260503204828 12 225 6.4 11.3 0.00 0.00 0.00 36 1008.9
20260503204326 12 163 4.8 6.4 0.00 0.00 0.00 35 1008.9
20260503203823 12 236 6.4 6.4 0.00 0.00 0.00 37 1009.0
20260503203320 12 224 11.3 14.5 0.00 0.00 0.00 34 1009.1
20260503202817 12 260 8.0 11.3 0.00 0.00 0.00 36 1009.2
20260503202315 12 339 8.0 12.9 0.00 0.00 0.00 34 1009.2